Simultaneous Nadir Overpasses (SNOs) Predictions

Prediction of SNOs between GOES-15 and METOP-C Satellite Orbit:

Table of predicted SNOs for the next 14.0 days since TLE Epoch: 10/8/2022
Index Date Time (GOES-15) GOES-15 Lat,Lon METOP-C Lat,Lon Distance(km) Time Diff (sec)
1 10/09/2022 06:12:32 0.29,-128.27 -0.15,-130.27 227.81 80
2 10/10/2022 05:49:14 0.28,-128.29 0.95,-125.28 342.68 80
3 10/11/2022 18:08:06 -0.29,-128.33 0.06,-129.84 172.42 80
4 10/12/2022 17:50:07 -0.28,-128.35 -1.05,-124.85 398.48 80
5 10/14/2022 06:09:11 0.29,-128.35 0.05,-129.45 125.77 80
6 10/15/2022 05:45:52 0.27,-128.35 1.16,-124.46 444.08 80
7 10/16/2022 18:04:44 -0.28,-128.38 -0.15,-129.02 72.77 80
8 10/17/2022 17:46:46 -0.27,-128.39 -1.27,-124.03 497.50 80
9 10/19/2022 06:05:48 0.28,-128.39 0.24,-128.63 26.66 80
10 10/21/2022 18:04:02 -0.28,-128.41 -0.34,-128.20 24.55 80
